map of GLZ home
Great Circle Mapper logo
GLZ - Airport
Location
City:  Breda, Netherlands
Name:Gilze-Rijen AB
ICAO / IATA:EHGR / GLZ

Details
Type:Airport (Aerodrome, Airfield)
Use:Military
Latitude:5134'03"N (51.567389)
Longitude:455'55"E (4.931833)
Datum:WGS 1984
Elevation:49 ft (15 m)
Variation:0.89E (WMM2015 magnetic declination)
0.14 annual change
Runways:2
Longest:9118 × 148 ft (2779 × 45 m), paved

Time
Time Zone:UTC+1 (DST+2)
Local Time:

Weather
METAR:EHGR 292335Z AUTO 25005KT 9999 SCT024 BKN028 OVC100 13/11 Q1013 WHT

Related Locations
Nearby:
Farthest:CHT: 11890 mi / 19135 km
Waitangi [Tuuta], Chatham Islands, NZ

Find:

   beyond  
but within

Other Information
Maps:
NOTAMs:
Links:
Sources:

  
flag of Netherlands   

Sectional Chart

Flight Planning
at skyvector.com

Satellite Image

Google Maps Satellite view

 

Copyright © 2004-2015 Karl L. Swartz. All rights reserved.
The Great Circle Mapper name and logo are trademarks of the Great Circle Mapper.
All other trademarks mentioned herein belong to their respective owners.
Please see credits for attibutions and further copyright information.

  Follow gcmap on Facebook Follow gcmap on Twitter Follow gcmap on Google+

hCard Microformat

Geo Microformat